Terminal Aerodrome Forecast
Issued by NWS Blacksburg, VA

Current Version | Previous Version | Graphics & Text | Print | Product List | Glossary On
Versions: 1 2 3 4 5 6 7 8 9 10 11 12 13 14 15 16 17 18 19 20 21 22 23 24 25 26 27 28 29 30 31 32 33 34 35 36 37 38 39 40 41 42 43 44 45 46 47 48
000
FTUS41 KRNK 161122
TAFBLF
TAF
KBLF 161122Z 1612/1712 12015G25KT P6SM -RA BKN015 OVC050
     FM161600 12010G20KT P6SM -RA SCT025 OVC050
     FM162300 13009KT 6SM -SHRA OVC015
     FM170400 16008KT P6SM OVC007=

USA.gov is the U.S. government's official web portal to all federal, state and local government web resources and services.